Vicksburg, LA

10:32 AM CDT on October 23, 2017 (GMT -0500)
Vicksburg Tallulah Regional

Weather History for KTVR - July, 2014

Change the Weather History Date:

Tuesday, July 8, 2014

  Actual Average Record
Temperature  
Mean Temperature 81 °F 81 °F  
Max Temperature 93 °F 92 °F 98 °F (1954)
Min Temperature 68 °F 71 °F 58 °F (1950)
Degree Days  
Heating Degree Days 0 0  
Month to date heating degree days 0 0  
Since 1 June heating degree days 0 0  
Since 1 July heating degree days 0 0  
Cooling Degree Days 16 16  
Month to date cooling degree days 102 128  
Year to date cooling degree days 876 916  
Since 1 June cooling degree days 526 546  
Growing Degree Days 30 (Base 50)    
Moisture  
Dew Point 72 °F    
Average Humidity 75    
Maximum Humidity 97    
Minimum Humidity 52    
Precipitation  
Precipitation 0.00 in 0.12 in 1.92 in (1975)
Month to date precipitation 0.15 0.98  
Year to date precipitation 35.03 30.27  
Sea Level Pressure  
Sea Level Pressure 30.05 in    
Wind  
Wind Speed 4 mph (South)    
Max Wind Speed 10 mph    
Max Gust Speed 17 mph    
Visibility 8 miles    
Events      
T = Trace of Precipitation, MM = Missing Value Source: NWS Daily Summary

Daily Weather History Graph

Daily Weather History Graph

Search for Another Location

Airport or City:

Trip Planner

Search our weather history database for the weather conditions in past years. The results will help you decide how hot, cold, wet, or windy it might be!

Date:

Astronomy

Jul. 08, 2014 Rise Set
Actual Time 6:04 AM CDT 8:14 PM CDT
Civil Twilight 5:35 AM CDT 8:42 PM CDT
Nautical Twilight 5:01 AM CDT 9:16 PM CDT
Astronomical Twilight 4:24 AM CDT 9:53 PM CDT
Moon 4:27 PM CDT (7/8) 2:29 AM CDT (7/8)
Length of Visible Light 15h 06m
Length of Day
14h 10m
Waxing Gibbous, 81% of the Moon is Illuminated
Jul 8
Waxing Gibbous
Jul 12
Full
Jul 18
Last Quarter
Jul 26
New
Aug 3
First Quarter

Hourly Weather History & Observations

Time (CDT) Temp. Heat Index Dew Point Humidity Pressure Visibility Wind Dir Wind Speed Gust Speed Precip Events Conditions
12:53 AM 75.0 °F - 70.0 °F 84% 30.01 in 10.0 mi South 5.8 mph - N/A   Clear
1:53 AM 73.9 °F - 70.0 °F 87% 29.99 in 10.0 mi South 3.5 mph - N/A   Clear
2:53 AM 72.0 °F - 70.0 °F 93% 30.02 in 8.0 mi Calm Calm - N/A   Clear
3:53 AM 70.0 °F - 68.0 °F 93% 30.05 in 3.0 mi Calm Calm - N/A   Clear
4:53 AM 71.1 °F - 69.1 °F 93% 30.07 in 2.5 mi Calm Calm - N/A   Clear
5:04 AM 70.0 °F - 68.0 °F 93% 30.05 in 0.8 mi Calm Calm - N/A   Clear
5:16 AM 70.0 °F - 68.0 °F 93% 30.05 in 2.0 mi South 3.5 mph - N/A   Clear
5:25 AM 70.0 °F - 68.0 °F 93% 30.06 in 5.0 mi Calm Calm - N/A   Clear
5:53 AM 69.1 °F - 66.9 °F 93% 30.07 in 5.0 mi Calm Calm - N/A   Clear
6:53 AM 72.0 °F - 70.0 °F 93% 30.08 in 4.0 mi Calm Calm - N/A   Clear
7:53 AM 78.1 °F - 73.0 °F 84% 30.08 in 10.0 mi South 6.9 mph - N/A   Clear
8:53 AM 81.0 °F 86.2 °F 73.9 °F 79% 30.10 in 10.0 mi Variable 4.6 mph - N/A   Clear
9:53 AM 84.0 °F 91.9 °F 75.0 °F 74% 30.09 in 10.0 mi SW 8.1 mph - N/A   Partly Cloudy
10:53 AM 87.1 °F 95.4 °F 73.9 °F 65% 30.12 in 10.0 mi Variable 5.8 mph - N/A   Partly Cloudy
11:53 AM 88.0 °F 96.5 °F 73.9 °F 63% 30.09 in 10.0 mi Calm Calm - N/A   Scattered Clouds
12:53 PM 89.1 °F 98.0 °F 73.9 °F 61% 30.08 in 10.0 mi SW 4.6 mph - N/A   Partly Cloudy
1:53 PM 89.1 °F 96.0 °F 72.0 °F 57% 30.05 in 10.0 mi Variable 3.5 mph - N/A   Clear
2:53 PM 91.9 °F 99.5 °F 72.0 °F 52% 30.05 in 10.0 mi Variable 4.6 mph - N/A   Clear
4:53 PM 89.1 °F 98.0 °F 73.9 °F 61% 30.01 in 10.0 mi South 6.9 mph - N/A   Clear
5:53 PM 89.1 °F 98.0 °F 73.9 °F 61% 30.01 in 10.0 mi South 8.1 mph - N/A   Clear
6:53 PM 86.0 °F 95.1 °F 75.0 °F 70% 30.01 in 10.0 mi South 5.8 mph - N/A   Clear
7:53 PM 82.0 °F 87.9 °F 73.9 °F 76% 30.00 in 10.0 mi South 6.9 mph - N/A   Clear
8:53 PM 80.1 °F 84.2 °F 73.0 °F 79% 30.01 in 10.0 mi South 5.8 mph - N/A   Clear
10:53 PM 75.9 °F - 71.1 °F 85% 30.03 in 10.0 mi South 4.6 mph - N/A   Clear
11:53 PM 73.9 °F - 71.1 °F 91% 30.04 in 10.0 mi SSE 3.5 mph - N/A   Clear